DateTimeUTC,F1_A11,F1_S11,BsB_S11,BsG_S11,BsR_S11,BbsB_S11,BbsG_S11,BbsR_S11,BaB_A11,BaG_A11,BaR_A11,Tu_S11,T_S11,Uu_S11,U_S11,P_S11,T1_A11
2021-08-08T21:00:00Z,00000200,20000000,,,,,,,-000.50,0000.08,0000.06,19.2,25.9,07.6,05.1,0668.4,31.1
2021-08-08T21:01:00Z,00000200,20000000,,,,,,,0000.15,0000.23,0000.22,19.2,25.9,07.5,05.0,0668.4,31.1
2021-08-08T21:02:00Z,00000200,20000000,,,,,,,-000.03,-000.31,-000.38,19.2,25.9,07.5,05.0,0668.4,31.1
2021-08-08T21:03:00Z,00000200,60000000,,,,,,,0000.49,0000.19,0000.18,19.2,25.9,07.5,05.0,0668.5,31.1
2021-08-08T21:04:00Z,00000200,40000000,0000.32,0000.62,0000.28,0000.60,0000.09,0000.29,0000.12,0000.45,0000.63,19.3,25.7,07.8,05.3,0669.3,31.0
2021-08-08T21:05:00Z,00000200,00000000,0000.72,0000.60,0000.57,0000.41,-000.18,0000.18,-000.15,-000.31,-000.53,19.4,25.7,07.7,05.3,0669.4,31.0
2021-08-08T21:06:00Z,00000200,00000000,0000.39,0000.58,0000.51,-000.41,-000.07,0000.31,0000.11,0000.29,0000.39,19.4,25.7,07.7,05.2,0669.4,31.0
2021-08-08T21:07:00Z,00000200,00000000,0000.89,0000.55,0000.54,0000.26,-000.29,0000.51,-000.40,-000.30,-000.11,19.4,25.6,07.5,05.1,0669.4,31.0
2021-08-08T21:08:00Z,00000200,00000000,0000.38,0000.75,0000.41,-000.07,-000.01,-000.14,0000.00,-000.29,-000.34,19.4,25.6,07.5,05.1,0669.4,31.0
2021-08-08T21:09:00Z,00000200,00000000,0000.52,0000.42,0001.03,-000.27,-000.01,0000.13,0000.26,0000.27,0000.43,19.4,25.6,07.6,05.2,0669.5,31.1
2021-08-08T21:10:00Z,00000200,00000000,0001.07,0000.57,0000.64,-000.27,-000.02,0000.27,0000.40,0000.70,0000.47,19.3,25.6,07.8,05.4,0669.5,31.1
2021-08-08T21:11:00Z,00000200,00000000,0001.08,0000.73,0000.84,0000.01,0000.41,0000.33,0000.21,0000.02,0000.22,19.3,25.6,07.9,05.4,0669.5,31.1
2021-08-08T21:12:00Z,00000200,00000000,0000.62,0000.35,0000.46,0000.64,0000.01,0000.18,-000.10,-000.05,-000.18,19.3,25.6,07.8,05.3,0669.5,31.1
2021-08-08T21:13:00Z,00000200,00000000,0001.26,0000.82,0000.67,-000.22,0000.03,0000.39,0000.41,0000.22,0000.40,19.3,25.6,07.9,05.4,0669.6,31.0
2021-08-08T21:14:00Z,00000200,00000000,0001.30,0000.32,0000.09,0000.31,-000.24,-000.08,-000.27,0000.23,0000.32,19.3,25.6,07.9,05.4,0669.5,31.0
2021-08-08T21:15:00Z,00000200,00000000,0001.32,0000.74,0000.65,0000.21,0000.13,0000.08,0000.35,0000.26,-000.11,19.3,25.6,08.0,05.5,0669.6,31.1
2021-08-08T21:16:00Z,00000200,00000000,0001.39,0000.39,0000.69,-000.19,0000.13,0000.24,0000.02,-000.01,-000.25,19.3,25.6,07.9,05.4,0669.5,31.0
2021-08-08T21:17:00Z,00000200,00000000,0001.00,0000.96,0000.45,0000.01,0000.26,0000.42,0000.32,0000.09,0000.71,19.3,25.6,07.9,05.4,0669.6,31.0
2021-08-08T21:18:00Z,00000200,00000000,0001.50,0000.55,0000.68,0000.51,0000.02,-000.11,-000.21,0000.20,-000.29,19.3,25.6,08.0,05.5,0669.6,31.0
2021-08-08T21:19:00Z,00000200,00000000,0000.32,0000.62,0000.37,0000.86,-000.04,0000.07,0000.14,-000.12,0000.40,19.3,25.6,07.9,05.4,0669.5,31.1
2021-08-08T21:20:00Z,00000200,00000000,0001.33,0000.68,0000.51,-000.14,0000.33,0000.24,0000.26,0000.32,0000.21,19.3,25.6,08.0,05.4,0669.6,31.0
2021-08-08T21:21:00Z,00000200,00000000,0001.77,0000.41,0000.63,0000.43,-000.12,0000.06,-000.34,0000.05,-000.27,19.3,25.5,08.0,05.5,0669.5,31.0
2021-08-08T21:22:00Z,00000200,00000000,0000.45,0000.44,0000.65,0000.18,-000.07,0000.16,0000.51,0000.05,0000.28,19.3,25.6,08.0,05.5,0669.5,31.0
2021-08-08T21:23:00Z,00000200,00000000,0000.41,0000.42,0000.57,0000.58,0000.24,-000.11,0000.02,0000.23,0000.20,19.3,25.5,08.1,05.5,0669.6,31.1
2021-08-08T21:24:00Z,00000200,00000000,0000.79,0000.37,0000.42,-000.21,0000.06,-000.22,0000.24,0000.14,-000.19,19.3,25.5,08.0,05.5,0669.5,31.1
2021-08-08T21:25:00Z,00000200,00000000,0001.12,0000.76,0000.35,-000.42,-000.05,-000.04,-000.22,0000.02,-000.04,19.3,25.5,08.0,05.5,0669.5,31.1
2021-08-08T21:26:00Z,00000200,00000000,0000.29,0000.09,0000.84,0000.04,-000.23,0000.45,0000.61,0000.03,0000.52,19.3,25.5,08.1,05.5,0669.5,31.1
2021-08-08T21:27:00Z,00000200,00000000,0000.85,0000.67,0000.60,-000.58,0000.02,0000.16,0000.34,0000.21,0000.22,19.3,25.5,08.2,05.6,0669.6,31.1
2021-08-08T21:28:00Z,00000200,00000000,0001.43,0000.63,0000.66,-000.09,-000.01,-000.44,-000.33,-000.06,0000.06,19.3,25.5,08.1,05.5,0669.5,31.0
2021-08-08T21:29:00Z,00000200,00000000,0000.79,0000.88,0000.73,0000.03,0000.12,0000.40,0000.39,0000.44,0000.75,19.3,25.5,08.1,05.6,0669.6,31.1
2021-08-08T21:30:00Z,00000200,00000000,0001.21,0000.39,0000.57,0000.22,0000.10,-000.03,0000.09,-000.03,-000.63,19.3,25.5,08.2,05.6,0669.6,31.0
2021-08-08T21:31:00Z,00000200,00000000,0000.30,0000.27,0000.43,0000.24,0000.13,0000.08,-000.17,-000.25,0000.35,19.3,25.5,08.0,05.5,0669.5,31.0
2021-08-08T21:32:00Z,00000200,00000000,0001.12,0000.60,0000.57,-000.21,-000.09,0000.18,0000.24,0000.23,0000.01,19.3,25.5,07.9,05.4,0669.5,31.0
2021-08-08T21:33:00Z,00000200,00000000,0000.94,0000.90,0000.50,-000.25,-000.16,0000.09,-000.46,-000.14,-000.41,19.3,25.5,08.0,05.5,0669.5,31.0
2021-08-08T21:34:00Z,00000200,00000000,0000.67,0000.76,0000.37,0000.77,0000.02,-000.00,-000.05,0000.06,0000.09,19.3,25.5,08.0,05.5,0669.5,31.0
2021-08-08T21:35:00Z,00000200,00000000,0000.92,0000.59,0000.81,-000.18,0000.05,0000.18,0000.65,0000.44,0000.79,19.3,25.5,08.0,05.5,0669.6,31.0
2021-08-08T21:36:00Z,00000200,00000000,0001.40,0000.47,0000.76,0000.14,-000.19,0000.02,0000.07,0000.00,0000.19,19.3,25.5,08.1,05.6,0669.7,31.0
2021-08-08T21:37:00Z,00000200,00000000,0001.24,0000.54,0000.55,0000.01,0000.10,-000.12,0000.64,0000.38,0000.25,19.3,25.5,08.2,05.6,0669.6,31.0
2021-08-08T21:38:00Z,00000200,00000000,0001.24,0000.67,0000.77,-000.04,0000.03,0000.19,-000.44,0000.26,0000.09,19.3,25.5,08.2,05.6,0669.7,31.0
2021-08-08T21:39:00Z,00000200,00000000,0001.32,0000.82,0000.49,-000.27,0000.03,0000.03,0000.21,0000.11,-000.01,19.3,25.5,08.2,05.6,0669.6,31.0
2021-08-08T21:40:00Z,00000200,00000000,0000.93,0000.45,0000.85,-000.16,0000.51,-000.12,-000.12,-000.12,-000.14,19.3,25.5,08.1,05.6,0669.5,31.0
2021-08-08T21:41:00Z,00000200,00000000,0000.89,0000.66,0000.91,0000.30,0000.23,0000.42,0000.23,0000.08,0000.03,19.3,25.5,08.0,05.5,0669.6,31.0
2021-08-08T21:42:00Z,00000200,00000000,0001.11,0000.42,0000.33,0000.24,0000.17,-000.04,0000.12,-000.06,0000.08,19.3,25.5,08.0,05.5,0669.6,31.0
2021-08-08T21:43:00Z,00000200,00000000,0000.34,0000.68,0000.37,0000.34,0000.05,0000.06,-000.12,0000.19,0000.34,19.3,25.5,08.1,05.6,0669.6,31.0
2021-08-08T21:44:00Z,00000200,00000000,0001.25,0000.85,0000.65,0000.35,0000.05,0000.45,0000.49,0000.27,0000.26,19.3,25.5,08.2,05.6,0669.6,31.0
2021-08-08T21:45:00Z,00000200,00000000,0000.89,0000.25,0000.53,0000.56,0000.19,0000.12,0000.18,0000.30,0000.33,19.3,25.5,08.2,05.7,0669.6,31.0
2021-08-08T21:46:00Z,00000200,00000000,0001.26,0000.73,0000.55,0000.23,0000.16,0000.26,-000.45,-000.53,-000.24,19.3,25.5,08.2,05.6,0669.6,31.0
2021-08-08T21:47:00Z,00000200,00000000,0000.40,0000.43,0000.80,0000.19,0000.12,0000.40,0000.57,0000.77,0000.53,19.3,25.5,08.2,05.6,0669.6,31.0
2021-08-08T21:48:00Z,00000200,00000000,0001.18,0000.68,0000.67,-000.07,-000.08,0000.26,-000.67,-000.34,-000.55,19.3,25.5,08.2,05.6,0669.6,31.0
2021-08-08T21:49:00Z,00000200,00000000,0000.87,0000.83,0000.79,0000.32,0000.03,0000.11,0000.54,0000.48,0000.48,19.3,25.5,08.1,05.6,0669.6,31.0
2021-08-08T21:50:00Z,00000200,00000000,0000.82,0000.85,0000.81,0000.35,0000.32,0000.15,0000.28,-000.34,-000.21,19.3,25.5,08.2,05.6,0669.6,31.0
2021-08-08T21:51:00Z,00000200,00000000,0000.91,0000.36,0000.68,0000.25,-000.05,0000.15,-000.19,0000.16,0000.57,19.3,25.5,08.2,05.6,0669.7,31.1
2021-08-08T21:52:00Z,00000200,00000000,0001.40,0000.67,0000.69,0000.20,-000.15,0000.04,0000.44,0000.41,0000.26,19.3,25.5,08.3,05.7,0669.7,31.0
2021-08-08T21:53:00Z,00000200,00000000,0000.61,0000.18,0000.67,0000.00,-000.17,0000.46,0000.41,0000.06,0000.10,19.3,25.4,08.3,05.7,0669.6,31.0
2021-08-08T21:54:00Z,00000200,00000000,0001.28,0000.69,0000.38,0000.04,0000.24,0000.32,-000.42,-000.07,-000.06,19.3,25.4,08.3,05.7,0669.7,31.0
2021-08-08T21:55:00Z,00000200,00000000,0000.82,0001.02,0001.24,-000.30,0000.27,0000.36,0000.13,0000.13,-000.33,19.2,25.4,08.3,05.7,0669.7,31.0
2021-08-08T21:56:00Z,00000200,00000000,0000.71,0000.49,0000.59,0000.42,0000.13,0000.32,0000.58,0000.38,0000.66,19.3,25.4,08.3,05.7,0669.7,31.0
2021-08-08T21:57:00Z,00000200,40000000,,,,,,,-000.41,-000.36,-000.58,19.3,25.5,08.0,05.5,0669.7,31.0
2021-08-08T21:58:00Z,00000200,60000000,,,,,,,-000.42,-000.05,0000.39,19.0,25.6,08.2,05.5,0668.7,31.0
2021-08-08T21:59:00Z,00000200,20000000,,,,,,,0000.12,-000.13,0000.09,19.0,25.7,08.1,05.4,0668.7,31.0
